Seeley, CA

8:50 PM PST on February 08, 2016 (GMT -0800)
El Centro Naval Air Facility

Weather History for KNJK - November, 2011

Change the Weather History Date:

Monday, November 14, 2011

  Actual Average Record
Temperature  
Mean Temperature 64 °F -  
Max Temperature 76 °F 76 °F 91 °F (2008)
Min Temperature 52 °F 50 °F 39 °F (2000)
Degree Days  
Heating Degree Days 1    
Growing Degree Days 14 (Base 50)    
Moisture  
Dew Point 45 °F    
Average Humidity 46    
Maximum Humidity 64    
Minimum Humidity 35    
Precipitation  
Precipitation 0.00 in - - ()
Sea Level Pressure  
Sea Level Pressure 29.94 in    
Wind  
Wind Speed 3 mph (SW)    
Max Wind Speed 7 mph    
Max Gust Speed -    
Visibility 10 miles    
Events      
Averages and records for this station are not official NWS values.
T = Trace of Precipitation, MM = Missing Value Source: NWS Daily Summary

Daily Weather History Graph

Daily Weather History Graph

Search for Another Location

Airport or City:

Trip Planner

Search our weather history database for the weather conditions in past years. The results will help you decide how hot, cold, wet, or windy it might be!

Date:

Astronomy

Nov. 14, 2011 Rise Set
Actual Time 6:11 AM PST 4:42 PM PST
Civil Twilight 5:45 AM PST 5:08 PM PST
Nautical Twilight 5:16 AM PST 5:37 PM PST
Astronomical Twilight 4:46 AM PST 6:07 PM PST
Moon 7:56 PM PST (11/14) 9:29 AM PST (11/14)
Length of Visible Light 11h 22m
Length of Day
10h 30m
Waning Gibbous, 86% of the Moon is Illuminated
Nov 14
Waning Gibbous
Nov 18
Last Quarter
Nov 24
New
Dec 2
First Quarter
Dec 10
Full

Hourly Weather History & Observations

Time (PST) Temp. Dew Point Humidity Pressure Visibility Wind Dir Wind Speed Gust Speed Precip Events Conditions
12:56 AM - - N/A% 29.97 in - North - - N/A   Unknown
1:56 AM - - N/A% 29.96 in - North - - N/A   Unknown
2:56 AM - - N/A% 29.95 in - North - - N/A   Unknown
3:14 AM - - N/A% - - North - - N/A   Unknown
3:56 AM - - N/A% 29.94 in - North - - N/A   Unknown
4:56 AM - - N/A% 29.95 in - North - - N/A   Unknown
5:56 AM 59.4 °F 39.0 °F 47% 29.95 in 10.0 mi Calm Calm - N/A   Clear
6:55 AM - - N/A% - - North - - N/A   Unknown
6:56 AM 52.0 °F 40.3 °F 64% 29.97 in 10.0 mi SW 4.6 mph - N/A   Partly Cloudy
7:56 AM 56.7 °F 43.7 °F 62% 29.98 in 10.0 mi SW 3.5 mph - N/A   Partly Cloudy
8:56 AM 61.9 °F 47.7 °F 60% 29.99 in 10.0 mi SW 4.6 mph - N/A   Scattered Clouds
9:56 AM 68.4 °F 47.8 °F 48% 29.99 in 10.0 mi Calm Calm - N/A   Scattered Clouds
10:56 AM 72.0 °F 50.0 °F 46% 29.97 in 10.0 mi Variable 5.8 mph - N/A   Partly Cloudy
11:56 AM 72.9 °F 48.7 °F 42% 29.94 in 10.0 mi Calm Calm - N/A   Partly Cloudy
12:56 PM 74.3 °F 47.8 °F 39% 29.90 in 10.0 mi Variable 5.8 mph - N/A   Clear
1:56 PM 75.9 °F 46.6 °F 35% 29.89 in 10.0 mi Variable 3.5 mph - N/A   Clear
2:56 PM 76.1 °F 46.4 °F 35% 29.88 in 10.0 mi Variable 3.5 mph - N/A   Clear
3:56 PM 76.6 °F 46.9 °F 35% 29.88 in 10.0 mi NE 5.8 mph - N/A   Clear
4:56 PM 72.3 °F 47.1 °F 41% 29.88 in 10.0 mi Variable 3.5 mph - N/A   Clear
5:56 PM 70.7 °F 44.1 °F 38% 29.91 in 10.0 mi Variable 3.5 mph - N/A   Clear
6:56 PM 68.2 °F 44.6 °F 43% 29.92 in 10.0 mi Variable 3.5 mph - N/A   Clear
7:56 PM 65.1 °F 43.5 °F 45% 29.94 in 10.0 mi Variable 6.9 mph - N/A   Clear
8:56 PM 63.3 °F 43.2 °F 48% 29.96 in 10.0 mi Variable 6.9 mph - N/A   Clear
9:56 PM 63.0 °F 42.4 °F 47% 29.98 in 10.0 mi Variable 3.5 mph - N/A   Clear
10:56 PM 62.2 °F 41.5 °F 47% 29.98 in 10.0 mi Variable 3.5 mph - N/A   Clear
11:56 PM - - N/A% 29.99 in - North - - N/A   Unknown